Weather in Ocean City

United States     38°19′53″N   75°06′25″W
temp.,
°C
wind,
m/s
gust,
m/s
humid.,
%
clouds,
%
prec.,
mm/h
press.,
hPa
HPBL,
m
26 may, thu
thu2623:00+16e6983100 0.0 1026375
02:00+16e6884100 0.0 1025293
05:00+16e6885100 0.1 1025276
08:00+16ese6988100 0.1 1025251
11:00+16e6991100 0.0 1024189
14:00+17ese5992100 0.0 1023152
17:00+17sse61194100 0.0 1021181
20:00+18sse7149459 0.0 1020192
27 may, fri
fri2723:00+18sse8169654 0.1 1019221
02:00+17s7139856 0.1 1018167
05:00+17s7129824 0.0 1017159
08:00+17s61197100 0.0 1017142
11:00+18s71198100 0.0 1016150
14:00+18s71197100 0.4 1014140
17:00+17ssw51299100 4.7 1013226
20:00+18s6999100 9.4 1012152
28 may, sat
sat2823:00+17s4899100 5.4 1011177
02:00+17ssw81699100 11.1 1008276
05:00+17ssw91599100 0.4 1008255
08:00+17ssw81296100 1.4 1008223
11:00+18sw449322 2.1 100836
14:00+20wnw44771 5.6 100922
17:00+19w3378100 0.9 100923
20:00+19w44810 1.6 101141
29 may, sun
sun2923:00+18wnw46840 0.0 101389
02:00+17wnw47855 0.0 1014118
05:00+17nw578722 0.0 1015133
08:00+17nnw348863 0.0 101774
11:00+19ene228586 0.0 101928
14:00+19sse448242 0.0 1018118
17:00+20s558229 0.0 1018104
20:00+19s5687100 0.0 101978
30 may, mon
mon3023:00+18ssw578783 0.0 102085
02:00+18ssw59878 0.0 1020133
05:00+18sw5887100 0.0 1020117
08:00+18ssw588915 0.0 1021104
11:00+18ssw678976 0.0 102172
14:00+19ssw798896 0.0 101983
17:00+19ssw711865 0.0 101897
20:00+19ssw8128667 0.0 1018117